User: anonymous   Login
Location: Bakov nad Jizerou
(50.4784°N, 14.9394°E)
Time: 10:36:56
(UTC+00:00)
Language:

FALCON 9 DEB - Orbit

View from above orbital plane
View from above orbital plane
View from above satellite
View from above satellite

Ground track
Ground track

The orbit data is extracted from the following two-line orbital elements,

1 46085U 20055BL  21267.82245065  .00032634  00000-0  29012-3 0  9990
2 46085  53.0092  69.0293 0008466 210.9241 149.1276 15.68196565 69238
Epoch (UTC): 24 September 2021 19:44:19
Eccentricity: 0.0008466
inclination: 53.0092°
perigee height: 358 km
apogee height: 370 km
right ascension of ascending node: 69.0293°
argument of perigee: 210.9241°
revolutions per day: 15.68196565
mean anomaly at epoch: 149.1276°
orbit number at epoch: 6923

The dashed part of the orbit path shows where the satellite is in the earth's shadow,  

DLR